Location: ??????????
(54.4061°N, 22.6114°E)
Time: 19:18:29
(UTC+00:00)

CZ-2C R/B - Pass Details

Date: 23 October 2019
Orbit: 703 x 909 km, 98.1° (Epoch: 20 November)

Event Time Altitude Azimuth Distance (km) Brightness Sun altitude
Exits shadow 17:07:08 25° 75° (ENE) 1,720 4.2 -17.0°
Maximum altitude 17:08:16 27° 56° (NE) 1,649 4.3 -17.2°
Drops below altitude 10° 17:12:56 10° 1° (N) 2,539 5.7 -17.9°
Sets 17:15:36 0° 350° (N) 3,453 6.6 -18.3°
